Regional Weather Roundup
Issued by NWS

Home | Current Version | Previous Version | Graphics & Text | Print | Product List | Glossary On
Versions: 1 2 3 4 5 6 7 8 9 10 11 12 13 14 15 16 17 18 19 20 21 22 23 24 25 26 27 28 29 30 31 32 33 34 35 36 37 38 39 40 41 42 43 44 45 46 47 48 49 50
000
ASUS43 KDMX 201506
RWRIA

WEATHER ROUNDUP FOR IOWA
NATIONAL WEATHER SERVICE DES MOINES IA
900 AM CST SAT JAN 20 2018

NOTE: "FAIR" INDICATES FEW OR NO CLOUDS BELOW 12,000 FEET WITH NO
SIGNIFICANT WEATHER AND/OR OBSTRUCTIONS TO VISIBILITY.

* - THESE STATIONS ARE NOT NWS STATIONS...THUS NOT UNDER NWS
QUALITY CONTROL.  THEY ALSO DO NOT REPORT WEATHER SUCH
AS PRECIPITATION OR FOG.

IAZ001>003-012>014-020>022-031>034-043>046-201600-
   NORTHWEST IOWA

CITY           SKY/WX    TMP DP  RH WIND       PRES   REMARKS
CARROLL *      CLOUDY    32  30  93 CALM      29.87R
CHEROKEE *     MOSUNNY   28  28 100 CALM      29.87S
DENISON *      CLOUDY    28  27  93 CALM      29.88R
LE MARS *      CLOUDY    27  27 100 CALM      29.86F
ORANGE CITY *  CLOUDY    32  30  93 CALM      29.85S
SHELDON *      CLOUDY    27  27 100 E5        29.84S WCI  21
SIOUX CITY     CLOUDY    29  29 100 CALM      29.87R
SPENCER        CLOUDY    28  24  85 CALM      29.87R
STORM LAKE *   CLOUDY    34  30  86 NE6       29.86R WCI  29
$$

IAZ055>058-069>071-079>083-090>094-201600-
   SOUTHWEST IOWA

CITY           SKY/WX    TMP DP  RH WIND       PRES   REMARKS
ATLANTIC *     SUNNY     27  27 100 N5        29.87R WCI  21
AUDUBON *      CLOUDY    27  23  86 CALM      29.87R
CLARINDA *     CLOUDY    32  32 100 CALM        N/A
COUNCIL BLFS * CLOUDY    30  30 100 SE6       29.84S WCI  24
CRESTON *      CLOUDY    32  30  93 CALM      29.87R
HARLAN  *      CLOUDY    25  25 100 N3        29.89R
LAMONI         CLOUDY    40  38  93 SW13      29.87R FOG     WCI  32
RED OAK *      CLOUDY    28  27  93 CALM      29.87R
SHENANDOAH *   SUNNY     30  28  93 CALM      29.88R
$$

IAZ047>049-059>061-072>074-084-201600-
   CENTRAL IOWA

CITY           SKY/WX    TMP DP  RH WIND       PRES   REMARKS
AMES           CLOUDY    30  29  96 CALM      29.87R
ANKENY *       CLOUDY    30  28  93 CALM      29.88S
BOONE *        CLOUDY    34  30  86 N5        29.86R WCI  30
CHARITON *     CLOUDY    34  34 100 SW10      29.88R FOG     WCI  26
DES MOINES     CLOUDY    32  28  85 S3        29.87R
GRINNELL*      MOSUNNY   32  28  86 SW3       29.87R
KNOXVILLE *    CLOUDY    36  28  75 SW7       29.87R WCI  30
MARSHALLTOWN   CLOUDY    31  28  89 CALM      29.86R
NEWTON *       CLOUDY    32  28  86 SW3       29.88R
PELLA *        CLOUDY    35  29  79 SW3       29.90R
PERRY *          N/A     30  29  95 NW3       29.87R
$$

IAZ004>006-015-016-023>025-035-036-201600-
   NORTH CENTRAL IOWA

CITY           SKY/WX    TMP DP  RH WIND       PRES   REMARKS
ALGONA *       CLOUDY    34 N/A N/A N5        29.87R WCI  30
CLARION *      CLOUDY    30  30 100 CALM      29.86R
ESTHERVILLE    CLOUDY    28  27  96 NW5       29.86R WCI  23
FORT DODGE *   CLOUDY    33  29  85 CALM      29.87R
MASON CITY     MOSUNNY   32  29  88 N3        29.88R
FOREST CITY *    N/A     32  30  93 CALM      29.87R
WEBSTER CITY * CLOUDY    30  30 100 CALM      29.85R
IOWA FALLS *     N/A     31  30  95 CALM      29.88R
$$

IAZ007>011-017>019-026>030-037>042-050>054-066-201600-
   NORTHEAST IOWA

CITY           SKY/WX    TMP DP  RH WIND       PRES   REMARKS
CEDAR RAPIDS     N/A     33  28  81 S3        29.87R
CHARLES CITY *   N/A     32  32 100 N5        29.87S WCI  27
CLINTON *        N/A     34  30  85 CALM      29.91R
DECORAH *        N/A     32  32 100 CALM      29.86R
DUBUQUE          N/A     30  26  85 CALM      29.87R
MONTICELLO *     N/A     30  27  86 CALM      29.88R
OELWEIN *        N/A     30  30 100 CALM      29.87R
WATERLOO         N/A     30  28  92 CALM      29.87R
$$

IAZ064-065-067-068-078-201600-
   EAST CENTRAL IOWA

CITY           SKY/WX    TMP DP  RH WIND       PRES   REMARKS
DAVENPORT        N/A     37  30  75 SW5       29.92R WCI  33
IOWA CITY        N/A     31  26  82 CALM      29.91R
MT. PLEASANT * CLOUDY    36  32  87 SW8       29.91R WCI  29
MUSCATINE *      N/A     37  30  75 S5        29.92R WCI  34
QUAD CITIES      N/A     34  30  85 CALM      29.91R
$$

IAZ062-063-075>077-085>089-095>099-201600-
   SOUTHEAST IOWA

CITY           SKY/WX    TMP DP  RH WIND       PRES   REMARKS
BURLINGTON     CLOUDY    37  32  82 S8        29.92R WCI  31
FAIRFIELD *    CLOUDY    37  32  81 SW7       29.89S WCI  32
FORT MADISON * CLOUDY    37  34  87 S9        29.93R WCI  31
KEOKUK *       CLOUDY    39  34  81 SW9       29.93R WCI  33
OSKALOOSA *      N/A     33  31  91 SW5       29.89R WCI  29
OTTUMWA        CLOUDY    36  31  82 S6        29.88R WCI  31
WASHINGTON *   CLOUDY    36  34  93 SW6       29.91R WCI  31
$$

ABBREVIATIONS USED IN REMARKS
   TC - TEMPERATURES IN CELSIUS
  WCI - WIND CHILL INDEX
   HX - HEAT INDEX
  VSB - VISIBILITY
$$





USA.gov is the U.S. government's official web portal to all federal, state and local government web resources and services.